Location: Newark
(33.4133°N, 82.3847°W)
Time: 21:08:04
(UTC+00:00)

Hubble Space Telescope - Pass Details

Date: 29 January 2020
Orbit: 536 x 540 km, 28.5° (Epoch: 23 February)

Event Time Altitude Azimuth Distance (km) Brightness Sun altitude
Exits shadow 10:29:38 - 181° (S) 1,828 3.5 -24.8°
Reaches altitude 10° 10:29:59 10° 177° (S) 1,773 3.5 -24.7°
Maximum altitude 10:31:27 12° 156° (SSE) 1,671 3.6 -24.4°
Drops below altitude 10° 10:32:54 10° 135° (SE) 1,775 4.1 -24.1°
Sets 10:36:33 0° 102° (ESE) 2,668 5.8 -23.3°
